Sign In / Sign Up
 
 
Long Long Journey Regatta. Leg 64. 23/03 - 29/03



Race Date (UTC) # I place II place III place Track
Race3857 2020-03-26 19:04:19 8 Albarone laser2 CAQU
Race3856 2020-03-26 19:02:55 8 ALFREDO morjeplovec love
Race3855 2020-03-26 19:02:01 8 Corto Maltese PL334 GypsyBaron
Race3854 2020-03-26 19:00:14 8 Bacchus2305 OOO Trabucat
Race3853 2020-03-26 18:59:04 8 revenge NFUN Y.C. Tempio Pausania
Race3852 2020-03-26 18:57:35 8 Albarone morjeplovec Superyacht
Race3851 2020-03-26 18:56:21 8 gangbang BRA 48 YouSuck
Race3850 2020-03-26 18:55:16 8 love Indefensible Hobie14
Race3849 2020-03-26 18:54:13 8 Lunarossa fringuello mannaro calimero
Race3848 2020-03-26 18:52:35 7 morjeplovec Y.C. Tempio Pausania jack
Race3847 2020-03-26 18:51:38 8 YouSuck pokey PL334
Race3846 2020-03-26 18:50:41 8 HOT TODDY invidia Amateur
Race3845 2020-03-26 18:49:54 8 A28 Sambaqui man Tabasco
Race3844 2020-03-26 18:48:40 6 nelie planatone 123
Race3843 2020-03-26 18:46:47 8 love morjeplovec A-Windwillow
Race3842 2020-03-26 18:46:12 8 Superyacht Sy Rokha Platu Worlds 2020
Race3841 2020-03-26 18:45:29 8 invidia Amateur Guillem
Race3840 2020-03-26 18:44:37 8 Hercules Mancio-AntiCovid jack
Race3839 2020-03-26 18:43:41 8 Indefensible A28 Tabasco
Race3838 2020-03-26 18:42:52 8 ELBETICO nelie CZE284
Race3837 2020-03-26 18:41:21 8 love Altair morjeplovec
Race3836 2020-03-26 18:40:12 8 pokey Superyacht Platu Worlds 2020
Race3835 2020-03-26 18:39:20 8 Guillem invidia Y.C. Tempio Pausania
Race3834 2020-03-26 18:37:37 8 FRA 373 Hobie14 ELIOTLUCAS 1
Race3833 2020-03-26 18:36:50 8 123 Sambaqui man wary Pol1979
Race3832 2020-03-26 18:35:49 8 ITA 24 macio71 Tabasco
Race3831 2020-03-26 18:35:00 8 AMMERDA Canelo A28
Race3830 2020-03-26 18:33:52 8 Pangea nelie invidia
Race3829 2020-03-26 18:32:57 8 Karlyto Brigante PL334 Tired of Winning
Race3828 2020-03-26 18:31:43 5 Hobie14 Pistigula Rostelek
Race3827 2020-03-26 18:30:44 8 morjeplovec ITA 24 ELIOTLUCAS 1
Race3826 2020-03-26 18:29:59 8 Woody Big Rift Y.C. Tempio Pausania
Race3825 2020-03-26 18:28:42 8 cvA AMMERDA defelice86
Race3824 2020-03-26 18:27:55 8 Pangea Ciambercu Superyacht
Race3823 2020-03-26 18:26:26 8 Tired of Winning PL334 Norman
Race3822 2020-03-26 18:24:58 8 morjeplovec yadolu karambola ITA4627
Race3821 2020-03-26 18:23:45 7 macio71 ANEMOS Big Rift
Race3820 2020-03-26 18:23:04 8 Casteddu cvA AMMERDA
Race3819 2020-03-26 18:21:24 8 Ciambercu Pangea nelie
Race3818 2020-03-26 18:20:33 4 ~ Friendly Confines Pistigula
Race3817 2020-03-26 18:19:30 8 morjeplovec YouSuck RM-1260
Race3816 2020-03-26 18:18:19 8 ulisse 1955 fiba Antigua
Race3815 2020-03-26 18:17:08 8 AMMERDA cvA Big Rift
Race3814 2020-03-26 18:16:27 8 nelie Ciambercu Amanda 777
Race3813 2020-03-26 18:15:58 8 Globus Crimea rs
Race3812 2020-03-26 18:15:09 4 macio71 Dupa jordan
Race3811 2020-03-26 18:14:18 8 SailAlong Indefensible dario_net
Race3810 2020-03-26 18:13:27 8 morjeplovec max53 Norman
Race3809 2020-03-26 18:12:15 8 Antigua bangBang yadolu
Race3808 2020-03-26 18:11:33 8 federico Big Rift NORBY J24
Race3807 2020-03-26 18:10:37 8 Crimea Ciambercu nelie
Race3806 2020-03-26 18:09:29 8 BUMBA Y.C. Tempio Pausania Lyx Blu
Race3805 2020-03-26 18:08:34 8 SailAlong PL334 Globus
Race3804 2020-03-26 18:07:52 8 rs morjeplovec max53
Race3803 2020-03-26 18:06:55 8 between the sheets yadolu ulisse 1955
Race3802 2020-03-26 18:05:46 8 AMMERDA federico NORBY J24
Race3801 2020-03-26 18:03:42 8 Lyx Blu bangBang slange
Race3800 2020-03-26 18:02:47 8 SailAlong Davos_CZE Globus
Race3799 2020-03-26 18:01:47 8 ELIOTLUCAS 1 rs morjeplovec
Race3798 2020-03-26 18:00:44 8 Bele' ulisse 1955 yadolu
Race3797 2020-03-26 17:59:28 8 Albarone fedexx Antigua
Race3796 2020-03-26 17:58:56 8 Ciambercu Rostelek Alcor1183
Race3795 2020-03-26 17:57:58 8 Lyx Blu bangBang Lido di Venezia
Race3794 2020-03-26 17:56:54 8 morjeplovec Globus nelie
Race3793 2020-03-26 17:55:50 7 UpYers ELBETICO 3v CATTivik
Race3792 2020-03-26 17:54:56 8 •MonO• ulisse 1955 se ti pigghio !
Race3791 2020-03-26 17:54:16 8 MXR federico Altair
Race3790 2020-03-26 17:53:01 8 Platu Worlds 2020 X X X Maruim
Race3789 2020-03-26 17:51:58 8 BUMBA PRADA45 Amateur
Race3788 2020-03-26 17:51:08 8 Globus YouSuck morjeplovec
Race3787 2020-03-26 17:49:55 7 Immune Spirit UpYers relayergm
Race3786 2020-03-26 17:49:04 8 Bele' se ti pigghio ! ulisse 1955
Race3785 2020-03-26 17:47:22 8 MXR federico batana boat
Race3784 2020-03-26 17:46:30 8 BUMBA Lazy OMAHA
Race3783 2020-03-26 17:45:40 8 Globus Karmar Damned idiot
Race3782 2020-03-26 17:44:40 8 PRADA45 Amateur Aquarius
Race3781 2020-03-26 17:44:10 8 3v CATTivik Quarantined Altair
Race3780 2020-03-26 17:43:35 8 •MonO• ulisse 1955 Sgnaffe
Race3779 2020-03-26 17:41:56 8 batana boat Orzaiolo federico
Race3778 2020-03-26 17:40:55 8 Maruim X X X DAVE
Race3777 2020-03-26 17:40:09 8 Lido di Venezia yadolu Antigua
Race3776 2020-03-26 17:39:32 8 Kahuna Lippi & bully Globus
Race3775 2020-03-26 17:38:18 8 bemo Пуки-Срак Botta di Vento
Race3774 2020-03-26 17:37:55 8 ulisse 1955 •MonO• Valuma
Race3773 2020-03-26 17:37:01 8 Ciambercu 3v Ecovelaplay Breva
Race3772 2020-03-26 17:36:31 8 bangBang Senecio Orzaiolo
Race3771 2020-03-26 17:35:23 8 Windwillow BARBOTEN Castanj
Race3770 2020-03-26 17:34:49 8 Lido di Venezia Norman Maruim
Race3769 2020-03-26 17:34:19 8 Damned idiot Karmar yadolu
Race3768 2020-03-26 17:33:19 8 Take it easy Lippi & bully star6546
Race3767 2020-03-26 17:32:06 8 Sgnaffe HALK Nicholas
Race3766 2020-03-26 17:31:25 8 Altair Ciambercu Quarantined
Race3765 2020-03-26 17:30:21 8 federico Orzaiolo Fullspeed
Race3764 2020-03-26 17:29:48 8 Пуки-Срак Castanj LAMPO
Race3763 2020-03-26 17:28:59 8 Karmar Windwillow ITA 17700
Race3762 2020-03-26 17:27:54 8 yadolu Damned idiot wary Pol1979
Race3761 2020-03-26 17:27:13 8 Sgnaffe Lippi & bully ELBETICO
Race3760 2020-03-26 17:25:58 8 Lido di Venezia Take it easy Clandesteam
Race3759 2020-03-26 17:25:05 8 Amateur StaGalla cvA
Race3758 2020-03-26 17:24:07 8 Hudsucker federico Orzaiolo